Location: Limoges
(45.8500°N, 1.2500°E)
Time: 15:24:40
(UTC+01:00)

ISS - Visible Passes

Search period start: 27 January 2022 00:00
Search period end: 06 February 2022 00:00
Orbit: 413 x 422 km, 51.6° (Epoch: 27 January)

Date Brightness Start Highest point End Pass type
(mag) Time Alt. Az. Time Alt. Az. Time Alt. Az.
27 Jan -2.5 19:03:58 10° WNW 19:06:57 29° N 19:08:30 20° NE visible
27 Jan -0.6 20:40:59 10° NW 20:41:26 13° NW 20:41:26 13° NW visible
28 Jan -2.5 19:52:54 10° NW 19:55:22 32° NNW 19:55:22 32° NNW visible
29 Jan -2.7 19:04:47 10° WNW 19:07:49 31° N 19:09:19 21° NE visible
29 Jan -0.8 20:41:32 10° WNW 20:42:15 15° WNW 20:42:15 15° WNW visible
30 Jan -3.2 19:53:27 10° WNW 19:56:14 50° NNW 19:56:14 50° NNW visible
31 Jan -3.3 19:05:20 10° NW 19:08:33 43° NNE 19:10:17 23° E visible
31 Jan -0.9 20:42:10 10° WNW 20:43:14 18° W 20:43:14 18° W visible
01 Feb -3.6 19:53:56 10° WNW 19:57:15 66° SSW 19:57:23 65° SSW visible
02 Feb -3.9 19:05:46 10° WNW 19:09:07 81° NNE 19:11:39 16° ESE visible
02 Feb -0.8 20:43:15 10° W 20:44:37 16° WSW 20:44:37 16° WSW visible
03 Feb -1.8 19:54:37 10° W 19:57:30 27° SW 19:59:03 19° S visible
04 Feb -2.6 19:06:15 10° WNW 19:09:25 43° SW 19:12:36 10° SE visible
05 Feb -0.6 19:56:31 10° WSW 19:57:29 11° SW 19:58:27 10° SSW visible
